Starlink 33657

operational
NORAD ID: 63370 Int'l Des: 2025-063 Owner: SPXS Country: US Constellation: starlink
LEOCIRCULAR

Über Starlink 33657

Beschreibung wird geladen...

Live-Position

3D-Globus wird geladen...

Nächste Überflüge

Höhenverlauf

Altitude vs Time

uPlot chart will show altitude changes over time

Zweizeiliger Elementsatz

1 63370U 25063H 25258.11500507 .00054780 00000-0 13701-2 0 9994
2 63370 53.1568 149.0262 0001193 68.5955 291.5177 15.39611244 27811
Epoch: 15. Sept. 2025 • Age: 25 hours

Aktueller Status

Höhe 459.2 km
Geschwindigkeit 7.64 km/s
Subsatellitenpunkt -36.83°S, 62.75°E
Startdatum 26. März 2025
Alter 0.4 years
Typ internet

Technische Details

Klassifizierung Payload
Masse 575.00 kg
Trockenmasse 530.00 kg
Gesamtmasse 575.00 kg
Länge 0.30 m
Durchmesser 4.10 m
Spannweite 29.00 m
Form Box + pan
Hersteller SPXS
Bus-Typ Starlink V2MO
Phasenstatus In Orbit
Besitzer/Staat SPXS/US

Große Konstellationen

Loading constellations...